Погода в Эсэ-Хайя

Россия / Республика Саха (Якутия)     67°32′36″N   134°39′57″E
темп.,
°C
ветер,
м/с
пор.,
м/с
влажн.,
%
обл.,
%
осадки,
мм/ч
давл.,
гПа
погр.,
м
3 марта, ср
ср301:00−39з1110064 0.0 102618
04:00−39зсз1110080 0.0 102519
07:00−39зсз11100100 0.0 102519
10:00−37зсз1199100 0.0 102378
13:00−35сз2294100 0.0 1021298
16:00−35сз1294100 0.1 1020375
19:00−38зсз11100100 0.0 102019
22:00−39сз11100100 0.0 102019
4 марта, чт
чт401:00−38сз1399100 0.1 1020196
04:00−38зсз2399100 0.2 1020248
07:00−39зсз1299100 0.1 102160
10:00−39з1298100 0.2 1021177
13:00−37зсз1289100 0.0 1022396
16:00−36з1290100 0.1 1022397
19:00−36юз1197100 0.1 102434
22:00−35юз1198100 0.1 102438
5 марта, пт
пт501:00−34зюз1198100 0.1 102528
04:00−33зюз1199100 0.1 102520
07:00−33сз0099100 0.1 102619
10:00−31сз1198100 0.1 1026117
13:00−29сз2394100 0.1 1026355
16:00−27зсз2492100 0.1 1025565
19:00−28сз2299100 0.1 102651
22:00−29зсз2399100 0.2 1027124
6 марта, сб
сб601:00−30зсз2399100 0.1 1027103
04:00−30зсз2399100 0.2 1027165
07:00−30сз2298100 0.1 1028112
10:00−30зсз2397100 0.1 1028307
13:00−28сз2392100 0.1 1027397
16:00−27ссз1291100 0.1 1027404
19:00−29зсз1198100 0.0 102720
22:00−31сз01100100 0.1 102719
7 марта, вс
вс701:00−33юз00100100 0.0 102619
04:00−33ююв01100100 0.1 102719
07:00−33юв1198100 0.0 102719
10:00−31юв119599 0.0 102650
13:00−28вюв1191100 0.0 1025281
16:00−27вюв1291100 0.0 1024220
19:00−30вюв2293100 0.0 102320
22:00−30вюв1293100 0.0 102321